HODOYOSHI-3

Last updated on Sat Apr 13 2024 01:02:24 GMT+0100 (British Summer Time)

1 40015U 14033F 24103.49162692 .00001999 00000+0 26259-3 0 9994 2 40015 97.5982 292.7269 0036910 90.5113 270.0330 14.80830645529658
UTC large
Height (km)
Speed (km/s)
/
Latitude / Longitude
Inclination (degrees)
Orbital Period (minutes)
Azimuth
Elevation
Range (km)
Doppler Factor

Next 0 passes for location: London (51.5072 / 0.1276)

Sorry there are no passes over London.